Obiščite še:

Template documentation
and downloads

And another site



Select another period ( hide this area )

Enote Obdobje Custom range Directly to
Metrično Angleško Obe
Dnevni Tedenski Mesečni Letni
use both date-selectors for a custom range
previous Dan
With this date

WeatherUnderground graphs for this period ( click here )


Dnevni povzetek za Ponedeljek 22 Julij 2019
Čas Temp. ( °C ) Dew pt. ( °C ) Veter ( km/h ) Od Sunek vetra ( km/h ) Zračni tlak ( hPa ) Humid.( % ) Rainrate ( cm )
Višja27,3 20,5 8,0 JJV ( 46/142 ) 12,9 1023,2 93 -
Povprečje19,4 17,3 1,0 Brezveterje #117/149 1,8 1022,4 88 -
Nižja16,6 15,5 -   0,0 1021,6 63 -
Dnevni Tabular details for Ponedeljek 22 Julij 2019
Čas Temp. ( °C ) Dew pt. ( °C ) Veter ( km/h ) Od Sunek vetra ( km/h ) Zračni tlak ( hPa ) Humid.( % ) Rainrate ( cm )
00:02 18,9 17,6   Brezveterje   1022,2 92 -
00:08 18,8 17,5   Brezveterje   1022,2 92 -
00:12 18,8 17,4   Brezveterje   1022,2 92 -
00:18 18,8 17,4   Brezveterje   1022,2 92 -
00:22 18,8 17,4   Brezveterje   1022,2 92 -
00:28 18,7 17,4   Brezveterje   1022,2 92 -
00:34 18,7 17,4   Brezveterje   1022,2 92 -
00:38 18,7 17,3   Brezveterje   1022,2 92 -
00:42 18,6 17,3   Brezveterje   1022,2 92 -
00:48 18,6 17,3   Brezveterje   1022,2 92 -
00:52 18,6 17,3   Brezveterje   1022,2 92 -
00:58 18,5 17,2   Brezveterje   1022,2 92 -
01:04 18,4 17,3   Brezveterje   1022,2 93 -
01:08 18,4 17,2   Brezveterje   1022,2 93 -
01:14 18,4 17,2   Brezveterje   1022,2 93 -
01:18 18,3 17,0   Brezveterje   1022,2 92 -
01:24 18,3 16,9   Brezveterje   1022,2 92 -
01:28 18,3 16,9   Brezveterje   1022,2 92 -
01:34 18,2 17,1   Brezveterje   1022,2 93 -
01:38 18,2 17,0   Brezveterje   1022,2 93 -
01:44 18,1 16,9   Brezveterje   1022,2 93 -
01:48 18,1 16,9   Brezveterje   1022,2 93 -
01:54 17,9 16,8   Brezveterje   1022,2 93 -
01:58 17,9 16,7   Brezveterje   1022,2 93 -
02:04 17,8 16,7   Brezveterje   1022,2 93 -
02:08 17,8 16,6   Brezveterje   1022,2 93 -
02:14 17,7 16,5   Brezveterje   1022,2 93 -
02:18 17,6 16,4   Brezveterje   1021,9 93 -
02:24 17,6 16,4   Brezveterje   1021,9 93 -
02:28 17,4 16,3   Brezveterje   1021,9 93 -
02:34 17,3 16,2   Brezveterje   1021,9 93 -
02:38 17,3 16,1   Brezveterje   1021,9 93 -
02:44 17,3 16,1   Brezveterje   1021,9 93 -
02:48 17,3 16,1   Brezveterje   1021,6 93 -
02:54 17,2 16,1   Brezveterje   1021,9 93 -
02:58 17,3 16,1   Brezveterje   1021,9 93 -
03:04 17,3 16,1   Brezveterje   1021,9 93 -
03:08 17,3 16,1   Brezveterje   1021,9 93 -
03:14 17,3 16,1   Brezveterje   1021,9 93 -
03:18 17,2 16,1   Brezveterje   1021,9 93 -
03:24 17,2 16,1   Brezveterje   1021,9 93 -
03:28 17,2 16,1   Brezveterje   1022,2 93 -
03:34 17,2 16,0   Brezveterje   1022,2 93 -
03:38 17,1 15,9   Brezveterje   1022,2 93 -
03:44 17,1 15,9   Brezveterje   1022,2 93 -
03:48 17,1 15,9   Brezveterje   1022,2 93 -
03:54 17,0 15,8   Brezveterje   1022,2 93 -
03:58 16,9 15,8   Brezveterje   1022,2 93 -
04:04 16,9 15,7   Brezveterje   1022,2 93 -
04:08 16,8 15,7   Brezveterje   1022,2 93 -
04:14 16,8 15,7   Brezveterje   1022,2 93 -
04:18 16,8 15,7   Brezveterje   1022,2 93 -
04:24 16,8 15,7   Brezveterje   1022,2 93 -
04:28 16,8 15,7   Brezveterje   1022,2 93 -
04:34 16,8 15,7   Brezveterje   1022,2 93 -
04:38 16,8 15,7   Brezveterje   1022,2 93 -
04:44 16,8 15,7   Brezveterje   1022,2 93 -
04:48 16,8 15,7   Brezveterje   1022,2 93 -
04:52 16,7 15,6   Brezveterje   1022,2 93 -
05:04 16,7 15,6   Brezveterje   1022,2 93 -
05:08 16,7 15,6   Brezveterje   1022,2 93 -
05:14 16,7 15,6   Brezveterje   1022,2 93 -
05:18 16,7 15,6   Brezveterje   1022,2 93 -
05:24 16,6 15,5   Brezveterje   1022,2 93 -
05:28 16,6 15,5   Brezveterje   1022,2 93 -
05:34 16,7 15,6   Brezveterje   1022,2 93 -
05:38 16,7 15,6   Brezveterje   1022,2 93 -
05:44 16,7 15,6   Brezveterje   1022,2 93 -
05:48 16,7 15,6   Brezveterje   1022,2 93 -
05:54 16,7 15,6   Brezveterje   1022,6 93 -
05:58 16,7 15,6   Brezveterje   1022,6 93 -
06:04 16,7 15,6   Brezveterje   1022,6 93 -
06:08 16,7 15,6   Brezveterje   1022,6 93 -
06:14 16,7 15,6   Brezveterje   1022,6 93 -
06:18 16,7 15,6   Brezveterje   1022,6 93 -
06:24 16,7 15,6   Brezveterje   1022,6 93 -
06:28 16,7 15,6   Brezveterje   1022,6 93 -
06:34 16,8 15,7   Brezveterje   1022,9 93 -
06:38 16,8 15,7   Brezveterje   1022,9 93 -
06:44 16,9 15,8   Brezveterje   1022,9 93 -
06:48 17,0 15,8   Brezveterje   1022,9 93 -
06:54 17,1 15,9   Brezveterje   1022,9 93 -
06:58 17,1 15,9   Brezveterje   1022,9 93 -
07:04 17,2 16,0   Brezveterje   1022,9 93 -
07:08 17,2 16,1   Brezveterje   1022,9 93 -
07:14 17,3 16,1   Brezveterje   1022,9 93 -
07:18 17,3 16,2   Brezveterje   1022,6 93 -
07:24 17,4 16,3   Brezveterje   1022,6 93 -
07:28 17,6 16,4   Brezveterje   1022,9 93 -
07:34 17,6 16,4   Brezveterje   1022,9 93 -
07:38 17,7 16,5   Brezveterje   1022,9 93 -
07:44 17,9 16,7   Brezveterje   1023,2 93 -
07:48 18,1 16,9   Brezveterje 3,2 1022,9 93 -
07:54 18,2 17,1   Brezveterje 1,6 1022,9 93 -
07:58 18,3 17,1   Brezveterje 1,6 1022,9 93 -
08:04 18,3 17,2   Brezveterje 1,6 1023,2 93 -
08:08 18,3 17,2 1,6 SSZ 4,8 1022,9 93 -
08:14 18,3 17,1 3,2 SZ 4,8 1023,2 93 -
08:18 18,3 17,2 3,2 SZ 4,8 1023,2 93 -
08:24 18,4 17,2 1,6 SZ 3,2 1023,2 93 -
08:28 18,4 17,3   Brezveterje 3,2 1023,2 93 -
08:34 18,6 17,4   Brezveterje   1023,2 93 -
08:38 18,6 17,4   Brezveterje 3,2 1023,2 93 -
08:44 18,6 17,4 1,6 SZ 3,2 1023,2 93 -
08:48 18,7 17,6 1,6 SZ 3,2 1022,9 93 -
08:54 18,8 17,6   Brezveterje 1,6 1022,9 93 -
08:58 18,8 17,7   Brezveterje 1,6 1023,2 93 -
09:04 18,8 17,7   Brezveterje 1,6 1022,9 93 -
09:08 19,0 17,8 1,6 SZ 1,6 1022,9 93 -
09:14 19,3 18,1   Brezveterje 1,6 1022,9 93 -
09:18 19,4 18,3   Brezveterje 1,6 1022,9 93 -
09:22 19,7 18,6   Brezveterje   1022,6 93 -
09:28 20,2 19,0   Brezveterje   1022,6 93 -
09:34 20,4 19,3   Brezveterje 1,6 1022,6 93 -
09:38 20,5 19,3   Brezveterje 1,6 1022,6 93 -
09:44 20,6 19,4   Brezveterje 3,2 1022,6 93 -
09:48 20,8 19,7   Brezveterje 3,2 1022,6 93 -
09:54 21,2 20,1   Brezveterje 1,6 1022,6 93 -
09:58 21,3 19,8   Brezveterje 1,6 1022,6 91 -
10:04 21,8 19,9   Brezveterje   1022,6 89 -
10:08 22,2 19,9   Brezveterje   1022,6 87 -
10:14 22,8 20,0   Brezveterje   1022,6 84 -
10:18 23,3 20,3   Brezveterje   1022,6 83 -
10:24 24,1 20,2   Brezveterje 1,6 1022,6 79 -
10:28 24,4 19,9 1,6 Jug 1,6 1022,6 76 -
10:34 24,9 19,9 1,6 JJV 4,8 1022,6 74 -
10:38 25,2 20,5 1,6 JJV 6,4 1022,6 75 -
10:44 25,6 19,7 1,6 JJV 6,4 1022,6 70 -
10:48 25,8 20,1 1,6 JJV 8,0 1022,6 71 -
10:54 25,9 20,1 3,2 JV 8,0 1022,6 70 -
10:58 25,9 19,3 3,2 JJV 8,0 1022,6 67 -
11:04 25,9 19,1 4,8 JJV 4,8 1022,6 66 -
11:08 26,0 19,2 4,8 Jug 4,8 1022,6 66 -
11:14 26,2 19,1 4,8 JJV 11,3 1022,2 65 -
11:18 26,2 19,3 6,4 JV 11,3 1022,2 66 -
11:24 26,3 19,2 6,4 VJV 6,4 1022,2 65 -
11:28 26,3 19,7 6,4 Jug 8,0 1022,2 67 -
11:34 26,4 19,3 6,4 Jug 6,4 1022,2 65 -
11:38 26,5 19,4 6,4 JV 9,7 1022,2 65 -
11:44 26,6 19,2 6,4 JJV 12,9 1022,2 64 -
11:48 26,7 19,6 6,4 Jug 12,9 1022,2 65 -
11:54 26,6 19,2 6,4 Jug 8,0 1022,2 64 -
11:58 26,6 19,2 6,4 JJZ 8,0 1022,2 64 -
12:04 26,7 19,1 6,4 JJV 8,0 1022,2 63 -
12:08 26,8 19,9 6,4 Jug 8,0 1022,2 66 -
12:14 26,8 19,4 8,0 JV 8,0 1021,9 64 -
12:18 26,9 20,1 8,0 JJV 8,0 1021,9 66 -
12:22 27,2 20,0 6,4 JJZ 9,7 1021,9 65 -
12:28 27,3 19,9 6,4 JJV 9,7 1021,9 64 -
Dnevni povzetek za Ponedeljek 22 Julij 2019
Čas Temp. ( °C ) Dew pt. ( °C ) Veter ( km/h ) Od Sunek vetra ( km/h ) Zračni tlak ( hPa ) Humid.( % ) Rainrate ( cm )
Višja27,3 20,5 8,0 JJV ( 46/142 ) 12,9 1023,2 93 -
Povprečje19,4 17,3 1,0 Brezveterje #117/149 1,8 1022,4 88 -
Nižja16,6 15,5 -   0,0 1021,6 63 -
Dnevni Tabular details for Ponedeljek 22 Julij 2019
Čas Temp. ( °C ) Dew pt. ( °C ) Veter ( km/h ) Od Sunek vetra ( km/h ) Zračni tlak ( hPa ) Humid.( % ) Rainrate ( cm )
00:02 18,9 17,6   Brezveterje   1022,2 92 -
00:08 18,8 17,5   Brezveterje   1022,2 92 -
00:12 18,8 17,4   Brezveterje   1022,2 92 -
00:18 18,8 17,4   Brezveterje   1022,2 92 -
00:22 18,8 17,4   Brezveterje   1022,2 92 -
00:28 18,7 17,4   Brezveterje   1022,2 92 -
00:34 18,7 17,4   Brezveterje   1022,2 92 -
00:38 18,7 17,3   Brezveterje   1022,2 92 -
00:42 18,6 17,3   Brezveterje   1022,2 92 -
00:48 18,6 17,3   Brezveterje   1022,2 92 -
00:52 18,6 17,3   Brezveterje   1022,2 92 -
00:58 18,5 17,2   Brezveterje   1022,2 92 -
01:04 18,4 17,3   Brezveterje   1022,2 93 -
01:08 18,4 17,2   Brezveterje   1022,2 93 -
01:14 18,4 17,2   Brezveterje   1022,2 93 -
01:18 18,3 17,0   Brezveterje   1022,2 92 -
01:24 18,3 16,9   Brezveterje   1022,2 92 -
01:28 18,3 16,9   Brezveterje   1022,2 92 -
01:34 18,2 17,1   Brezveterje   1022,2 93 -
01:38 18,2 17,0   Brezveterje   1022,2 93 -
01:44 18,1 16,9   Brezveterje   1022,2 93 -
01:48 18,1 16,9   Brezveterje   1022,2 93 -
01:54 17,9 16,8   Brezveterje   1022,2 93 -
01:58 17,9 16,7   Brezveterje   1022,2 93 -
02:04 17,8 16,7   Brezveterje   1022,2 93 -
02:08 17,8 16,6   Brezveterje   1022,2 93 -
02:14 17,7 16,5   Brezveterje   1022,2 93 -
02:18 17,6 16,4   Brezveterje   1021,9 93 -
02:24 17,6 16,4   Brezveterje   1021,9 93 -
02:28 17,4 16,3   Brezveterje   1021,9 93 -
02:34 17,3 16,2   Brezveterje   1021,9 93 -
02:38 17,3 16,1   Brezveterje   1021,9 93 -
02:44 17,3 16,1   Brezveterje   1021,9 93 -
02:48 17,3 16,1   Brezveterje   1021,6 93 -
02:54 17,2 16,1   Brezveterje   1021,9 93 -
02:58 17,3 16,1   Brezveterje   1021,9 93 -
03:04 17,3 16,1   Brezveterje   1021,9 93 -
03:08 17,3 16,1   Brezveterje   1021,9 93 -
03:14 17,3 16,1   Brezveterje   1021,9 93 -
03:18 17,2 16,1   Brezveterje   1021,9 93 -
03:24 17,2 16,1   Brezveterje   1021,9 93 -
03:28 17,2 16,1   Brezveterje   1022,2 93 -
03:34 17,2 16,0   Brezveterje   1022,2 93 -
03:38 17,1 15,9   Brezveterje   1022,2 93 -
03:44 17,1 15,9   Brezveterje   1022,2 93 -
03:48 17,1 15,9   Brezveterje   1022,2 93 -
03:54 17,0 15,8   Brezveterje   1022,2 93 -
03:58 16,9 15,8   Brezveterje   1022,2 93 -
04:04 16,9 15,7   Brezveterje   1022,2 93 -
04:08 16,8 15,7   Brezveterje   1022,2 93 -
04:14 16,8 15,7   Brezveterje   1022,2 93 -
04:18 16,8 15,7   Brezveterje   1022,2 93 -
04:24 16,8 15,7   Brezveterje   1022,2 93 -
04:28 16,8 15,7   Brezveterje   1022,2 93 -
04:34 16,8 15,7   Brezveterje   1022,2 93 -
04:38 16,8 15,7   Brezveterje   1022,2 93 -
04:44 16,8 15,7   Brezveterje   1022,2 93 -
04:48 16,8 15,7   Brezveterje   1022,2 93 -
04:52 16,7 15,6   Brezveterje   1022,2 93 -
05:04 16,7 15,6   Brezveterje   1022,2 93 -
05:08 16,7 15,6   Brezveterje   1022,2 93 -
05:14 16,7 15,6   Brezveterje   1022,2 93 -
05:18 16,7 15,6   Brezveterje   1022,2 93 -
05:24 16,6 15,5   Brezveterje   1022,2 93 -
05:28 16,6 15,5   Brezveterje   1022,2 93 -
05:34 16,7 15,6   Brezveterje   1022,2 93 -
05:38 16,7 15,6   Brezveterje   1022,2 93 -
05:44 16,7 15,6   Brezveterje   1022,2 93 -
05:48 16,7 15,6   Brezveterje   1022,2 93 -
05:54 16,7 15,6   Brezveterje   1022,6 93 -
05:58 16,7 15,6   Brezveterje   1022,6 93 -
06:04 16,7 15,6   Brezveterje   1022,6 93 -
06:08 16,7 15,6   Brezveterje   1022,6 93 -
06:14 16,7 15,6   Brezveterje   1022,6 93 -
06:18 16,7 15,6   Brezveterje   1022,6 93 -
06:24 16,7 15,6   Brezveterje   1022,6 93 -
06:28 16,7 15,6   Brezveterje   1022,6 93 -
06:34 16,8 15,7   Brezveterje   1022,9 93 -
06:38 16,8 15,7   Brezveterje   1022,9 93 -
06:44 16,9 15,8   Brezveterje   1022,9 93 -
06:48 17,0 15,8   Brezveterje   1022,9 93 -
06:54 17,1 15,9   Brezveterje   1022,9 93 -
06:58 17,1 15,9   Brezveterje   1022,9 93 -
07:04 17,2 16,0   Brezveterje   1022,9 93 -
07:08 17,2 16,1   Brezveterje   1022,9 93 -
07:14 17,3 16,1   Brezveterje   1022,9 93 -
07:18 17,3 16,2   Brezveterje   1022,6 93 -
07:24 17,4 16,3   Brezveterje   1022,6 93 -
07:28 17,6 16,4   Brezveterje   1022,9 93 -
07:34 17,6 16,4   Brezveterje   1022,9 93 -
07:38 17,7 16,5   Brezveterje   1022,9 93 -
07:44 17,9 16,7   Brezveterje   1023,2 93 -
07:48 18,1 16,9   Brezveterje 3,2 1022,9 93 -
07:54 18,2 17,1   Brezveterje 1,6 1022,9 93 -
07:58 18,3 17,1   Brezveterje 1,6 1022,9 93 -
08:04 18,3 17,2   Brezveterje 1,6 1023,2 93 -
08:08 18,3 17,2 1,6 SSZ 4,8 1022,9 93 -
08:14 18,3 17,1 3,2 SZ 4,8 1023,2 93 -
08:18 18,3 17,2 3,2 SZ 4,8 1023,2 93 -
08:24 18,4 17,2 1,6 SZ 3,2 1023,2 93 -
08:28 18,4 17,3   Brezveterje 3,2 1023,2 93 -
08:34 18,6 17,4   Brezveterje   1023,2 93 -
08:38 18,6 17,4   Brezveterje 3,2 1023,2 93 -
08:44 18,6 17,4 1,6 SZ 3,2 1023,2 93 -
08:48 18,7 17,6 1,6 SZ 3,2 1022,9 93 -
08:54 18,8 17,6   Brezveterje 1,6 1022,9 93 -
08:58 18,8 17,7   Brezveterje 1,6 1023,2 93 -
09:04 18,8 17,7   Brezveterje 1,6 1022,9 93 -
09:08 19,0 17,8 1,6 SZ 1,6 1022,9 93 -
09:14 19,3 18,1   Brezveterje 1,6 1022,9 93 -
09:18 19,4 18,3   Brezveterje 1,6 1022,9 93 -
09:22 19,7 18,6   Brezveterje   1022,6 93 -
09:28 20,2 19,0   Brezveterje   1022,6 93 -
09:34 20,4 19,3   Brezveterje 1,6 1022,6 93 -
09:38 20,5 19,3   Brezveterje 1,6 1022,6 93 -
09:44 20,6 19,4   Brezveterje 3,2 1022,6 93 -
09:48 20,8 19,7   Brezveterje 3,2 1022,6 93 -
09:54 21,2 20,1   Brezveterje 1,6 1022,6 93 -
09:58 21,3 19,8   Brezveterje 1,6 1022,6 91 -
10:04 21,8 19,9   Brezveterje   1022,6 89 -
10:08 22,2 19,9   Brezveterje   1022,6 87 -
10:14 22,8 20,0   Brezveterje   1022,6 84 -
10:18 23,3 20,3   Brezveterje   1022,6 83 -
10:24 24,1 20,2   Brezveterje 1,6 1022,6 79 -
10:28 24,4 19,9 1,6 Jug 1,6 1022,6 76 -
10:34 24,9 19,9 1,6 JJV 4,8 1022,6 74 -
10:38 25,2 20,5 1,6 JJV 6,4 1022,6 75 -
10:44 25,6 19,7 1,6 JJV 6,4 1022,6 70 -
10:48 25,8 20,1 1,6 JJV 8,0 1022,6 71 -
10:54 25,9 20,1 3,2 JV 8,0 1022,6 70 -
10:58 25,9 19,3 3,2 JJV 8,0 1022,6 67 -
11:04 25,9 19,1 4,8 JJV 4,8 1022,6 66 -
11:08 26,0 19,2 4,8 Jug 4,8 1022,6 66 -
11:14 26,2 19,1 4,8 JJV 11,3 1022,2 65 -
11:18 26,2 19,3 6,4 JV 11,3 1022,2 66 -
11:24 26,3 19,2 6,4 VJV 6,4 1022,2 65 -
11:28 26,3 19,7 6,4 Jug 8,0 1022,2 67 -
11:34 26,4 19,3 6,4 Jug 6,4 1022,2 65 -
11:38 26,5 19,4 6,4 JV 9,7 1022,2 65 -
11:44 26,6 19,2 6,4 JJV 12,9 1022,2 64 -
11:48 26,7 19,6 6,4 Jug 12,9 1022,2 65 -
11:54 26,6 19,2 6,4 Jug 8,0 1022,2 64 -
11:58 26,6 19,2 6,4 JJZ 8,0 1022,2 64 -
12:04 26,7 19,1 6,4 JJV 8,0 1022,2 63 -
12:08 26,8 19,9 6,4 Jug 8,0 1022,2 66 -
12:14 26,8 19,4 8,0 JV 8,0 1021,9 64 -
12:18 26,9 20,1 8,0 JJV 8,0 1021,9 66 -
12:22 27,2 20,0 6,4 JJZ 9,7 1021,9 65 -
12:28 27,3 19,9 6,4 JJV 9,7 1021,9 64 -

Download your copy of this data-set  here

Our weather-data as stored at Weather Underground. Script developed by Jim McMurry. Adapted for the template by Leuven-Template.eu

Oprema, ki se uporablja:

Vremenska postaja
Davis VP2

Vremenski program
WeatherLink

Davis VP2

WeatherLink

Meteorološki podatki vremenske postaje Luče so neuradni, meteorološka postaja sama pa ni del državne mreže Agencije Republike Slovenije za okolje (ARSO),
je pa vključena v Vremensko društvo ZEVS. Prikazani podatki so izmerjeni točno, vendar so zgolj informativni in nimajo značaja uradnega podatka.

Podatke meri vremenska postaja "Davis VP2" od leta 2008 dalje.

Opozarjamo, da ne prevzamemo odgovornosti za morebitno nastalo škodo, ki bi nastala zaradi odločitve, sprejete na osnovi teh podatkov!